Weather History for Marion, OH

Change the Weather History Date:

Wednesday, May 8, 2013

  Actual Average (KDLZ) Record (KDLZ)
Temperature  
Mean Temperature 64 °F -  
Max Temperature 73 °F 68 °F 88 °F (1936)
Min Temperature 57 °F 43 °F 28 °F (1947)
Growing Degree Days 14 (Base 50)    
Moisture  
Dew Point 52 °F    
Average Humidity 67    
Maximum Humidity 84    
Minimum Humidity 41    
Precipitation  
Precipitation 0.00 in - - ()
Sea Level Pressure  
Sea Level Pressure 29.97 in    
Wind  
Wind Speed 5 mph (NE)    
Max Wind Speed 12 mph    
Max Gust Speed -    
Visibility 10 miles    
Events Rain    
Averages and records for this station are not official NWS values.
T = Trace of Precipitation, MM = Missing Value Source: NWS Daily Summary

Daily Weather History Graph

Daily Weather History Graph

Search for Another Location

Airport:

Trip Planner

Search our weather history database for the weather conditions in past years. The results will help you decide how hot, cold, wet, or windy it might be!

Date:

Astronomy

May. 08, 2013 Rise Set
Actual Time 6:22 AM EDT 8:35 PM EDT
Civil Twilight 5:52 AM EDT 9:06 PM EDT
Nautical Twilight 5:14 AM EDT 9:43 PM EDT
Astronomical Twilight 4:33 AM EDT 10:24 PM EDT
Moon 5:30 AM EDT (5/8) 7:32 PM EDT (5/8)
Length of Visible Light 15h 14m
Length of Day
14h 13m
Waning Crescent, 2% of the Moon is Illuminated
May 8
Waning Crescent
May 9
New
May 18
First Quarter
May 25
Full
May 31
Last Quarter

Hourly Weather History & Observations

Time (EDT) Temp. Dew Point Humidity Pressure Visibility Wind Dir Wind Speed Gust Speed Precip Events Conditions
12:53 AM 59.0 °F 54.0 °F 83% 29.99 in 10.0 mi North 3.5 mph - N/A   Partly Cloudy
1:53 AM 57.0 °F 52.0 °F 83% 29.97 in 10.0 mi North 4.6 mph - N/A   Overcast
2:53 AM 57.9 °F 52.0 °F 81% 29.95 in 10.0 mi North 3.5 mph - N/A   Overcast
3:53 AM 59.0 °F 53.1 °F 81% 29.95 in 10.0 mi North 8.1 mph - N/A   Overcast
4:53 AM 57.9 °F 53.1 °F 84% 29.95 in 10.0 mi North 9.2 mph - N/A   Overcast
5:53 AM 57.0 °F 52.0 °F 83% 29.95 in 10.0 mi NNE 5.8 mph - N/A   Overcast
6:53 AM 57.0 °F 52.0 °F 83% 29.96 in 10.0 mi NNE 5.8 mph - N/A   Overcast
7:53 AM 59.0 °F 52.0 °F 78% 29.97 in 10.0 mi North 6.9 mph - N/A   Mostly Cloudy
8:53 AM 60.1 °F 53.1 °F 78% 29.98 in 10.0 mi NNE 4.6 mph - N/A   Overcast
9:53 AM 64.9 °F 54.0 °F 68% 29.99 in 10.0 mi NNE 4.6 mph - N/A   Clear
10:53 AM 64.9 °F 54.0 °F 68% 29.99 in 10.0 mi ENE 3.5 mph - N/A   Mostly Cloudy
11:53 AM 64.0 °F 51.1 °F 63% 30.01 in 10.0 mi East 4.6 mph - 0.00 in Rain Light Rain
12:53 PM 64.0 °F 53.1 °F 67% 30.01 in 10.0 mi SE 3.5 mph - 0.00 in Rain Light Rain
1:53 PM 64.9 °F 53.1 °F 65% 30.00 in 10.0 mi Calm Calm - 0.00 in   Partly Cloudy
2:53 PM 69.1 °F 54.0 °F 58% 29.98 in 10.0 mi SE 3.5 mph - N/A   Partly Cloudy
3:53 PM 72.0 °F 53.1 °F 51% 29.96 in 10.0 mi Variable 4.6 mph - N/A   Clear
4:53 PM 72.0 °F 50.0 °F 46% 29.94 in 10.0 mi NE 3.5 mph - N/A   Overcast
5:53 PM 72.0 °F 51.1 °F 48% 29.94 in 10.0 mi ESE 4.6 mph - N/A   Partly Cloudy
6:53 PM 72.0 °F 53.1 °F 51% 29.93 in 10.0 mi East 3.5 mph - N/A   Scattered Clouds
7:53 PM 71.1 °F 46.0 °F 41% 29.95 in 10.0 mi NNE 11.5 mph - N/A   Clear
8:53 PM 66.0 °F 48.0 °F 52% 29.96 in 10.0 mi NE 9.2 mph - N/A   Partly Cloudy
9:53 PM 60.1 °F 46.9 °F 62% 29.97 in 10.0 mi NE 5.8 mph - N/A   Clear
10:53 PM 57.9 °F 48.0 °F 70% 29.99 in 10.0 mi ENE 3.5 mph - N/A   Partly Cloudy
11:53 PM 59.0 °F 48.9 °F 69% 29.99 in 10.0 mi Calm Calm - N/A   Overcast